Back to catalog

STARLINK-32742

AliveCommunicationsVLEO
NORAD 62605·PAYLOAD·🇺🇸 United States

Launched Jan 13, 2025 from Cape Canaveral Space Force Station

Loading…

Next Passes (next 24 hours)

TLE

FreshSource: CelesTrak SupGP

Epoch: Sep 14, 2026, 14:54 UTC

1 62605C 25008U   26257.62131944  .00035996  00000+0  13037-2 0  2570
2 62605  43.0016 290.6538 0001640 276.2079  35.1871 15.27563049    10

Track STARLINK-32742 in real time with AllMySat

Download on the App Store